Flag for Canada Weather past 2 weeks in Stonewall, Manitoba, Canada

48 °F

Passing clouds.

Feels Like: 45 °F
Forecast: 42 / 54 °F
Wind: 8 mph from Southwest

Location: Winnipeg Int. Airportman.

Current Time: Oct 13, 2015 at 9:39:09 PM

Latest Report: Oct 13, 2015 at 9:00 PM

Visibility: 15 mi

Pressure: 29.83 "Hg

Humidity: 71%

Dew point: 39 °F

Location of StonewallLocation

Historic Weather in Stonewall — Graph


Stonewall temperature yesterday

Maximum temperature yesterday: 54 °F (at 1:00 AM)
Minimum temperature yesterday: 41 °F (at 11:00 AM)
Average temperature yesterday: 46 °F

Past Weeks' High & Low Weather Summary

High75 °F (Oct 11, 12:00 PM)100% (Oct 8, 5:00 AM)30.54 "Hg (Oct 8, 5:00 AM)
Low28 °F (Sep 29, 5:00 AM)29% (Sep 29, 4:00 PM)29.10 "Hg (Oct 12, 5:00 AM)
Average50 °F70%30.04 "Hg
* Reported Sep 28 8:00 PM — Oct 13 8:00 PM, Stonewall, Weather by CustomWeather, © 2015

Note: Actual official high and low records may vary slightly from our data, if they occured in-between our weather recording intervals... More about our weather records


Stonewall weather history for previous 24 hours

Time TempWeatherWind HumidityBarometerVisibility
8:00 PM
Tue, Oct 13
48 °FPassing clouds.8 mph71%29.83 "Hg15 mi
7:00 PM54 °FPassing clouds.6 mph63%29.81 "Hg15 mi
6:00 PM57 °FScattered clouds.7 mph59%29.81 "Hg15 mi
5:00 PM61 °FPartly sunny.12 mph55%29.82 "Hg15 mi
4:00 PM59 °FScattered clouds.14 mph55%29.82 "Hg15 mi
3:00 PM59 °FScattered clouds.13 mph55%29.83 "Hg15 mi
2:00 PM55 °FScattered clouds.12 mph63%29.85 "Hg15 mi
1:00 PM52 °FPartly sunny.12 mph67%29.87 "Hg15 mi
12:00 PM50 °FPassing clouds.10 mph67%29.87 "Hg15 mi
11:00 AM46 °FSunny.9 mph71%29.88 "Hg15 mi
10:00 AM41 °FSunny.8 mph81%29.88 "Hg15 mi
9:00 AM36 °FPassing clouds.7 mph93%29.87 "Hg15 mi
8:00 AM30 °FPassing clouds.5 mph100%29.88 "Hg15 mi
7:00 AM30 °FPassing clouds.7 mph100%29.87 "Hg15 mi
6:00 AM34 °FPassing clouds.6 mph93%29.85 "Hg15 mi
5:00 AM36 °FPassing clouds.8 mph93%29.84 "Hg15 mi
4:00 AM36 °FPassing clouds.8 mph93%29.83 "Hg15 mi
3:00 AM36 °FPassing clouds.8 mph93%29.84 "Hg15 mi
2:00 AM36 °FPassing clouds.7 mph87%29.83 "Hg15 mi
1:00 AM34 °FPassing clouds.7 mph93%29.84 "Hg15 mi
12:00 AM39 °FOvercast.10 mph81%29.86 "Hg15 mi
11:00 PM
Mon, Oct 12
41 °FOvercast.10 mph81%29.85 "Hg15 mi
10:00 PM43 °FPassing clouds.13 mph76%29.85 "Hg15 mi
9:00 PM41 °FPassing clouds.10 mph81%29.83 "Hg15 mi
Weather by CustomWeather, © 2015

See weather overviewHow to use our weather pages